Regional Weather Roundup
Issued by NWS Albany, NY

Home | Current Version | Previous Version | Graphics & Text | Print | Product List | Glossary Off
Versions: 1 2 3 4 5 6 7 8 9 10 11 12 13 14 15 16 17 18 19 20 21 22 23 24 25 26 27 28 29 30 31 32 33 34 35 36 37 38 39 40 41 42 43 44 45 46 47 48 49 50

066
ASUS41 KALY 252010
RWRALY

NEW YORK STATE HOURLY WEATHER ROUNDUP
NATIONAL WEATHER SERVICE ALBANY NY
400 PM EDT TUE JUL 25 2017

NOTE: "FAIR" INDICATES FEW OR NO CLOUDS BELOW 12,000 FEET WITH NO
SIGNIFICANT WEATHER AND/OR NO OBSTRUCTIONS TO VISIBILITY.

NYZ032-033-038>043-046>054-057>066-NYZ062>081-082-084-252100-
EAST


CITY           SKY/WX    TMP DP  RH WIND       PRES   REMARKS
ALBANY         CLOUDY    64  57  78 N3        30.17R
GLENS FALLS    CLOUDY    66  56  70 N7        30.17R
POUGHKEEPSIE   CLOUDY    66  58  75 NE6       30.14R
NEWBURGH       CLOUDY    66  61  82 VRB6      30.15R
MONTGOMERY     CLOUDY    68  60  75 NE6       30.14R
WHITE PLAINS   PTSUNNY   66  59  78 E3        30.14R
ISLIP          CLOUDY    69  59  70 NE7       30.13R
NEW YORK CITY  CLOUDY    69  61  75 NE9       30.13R
CENTRAL PARK   CLOUDY    71  60  68 VRB5      30.16R
$$

NYZ005>009-017-018-044>046-055-056-252100-
CENTRAL


CITY           SKY/WX    TMP DP  RH WIND       PRES   REMARKS
FULTON         CLOUDY    67  59  75 N7        30.17R
SYRACUSE       CLOUDY    65  60  84 W8        30.15S
ROME           CLOUDY    65  60  84 SE7       30.16R
ELMIRA         CLOUDY    67  59  75 N8        30.18R
BINGHAMTON     LGT RAIN  61  58  90 NW9       30.17R FOG
$$

NYZ026>034-041>043-087-252100-
NORTH


CITY           SKY/WX    TMP DP  RH WIND       PRES   REMARKS
WATERTOWN      CLOUDY    68  59  73 NE10      30.17R
FORT DRUM      NOT AVBL
OGDENSBURG     FAIR      70  58  66 N5        30.19R
MASSENA        PTSUNNY   69  58  67 NE6       30.19R
SARANAC LAKE   CLOUDY    61  56  83 E5        30.19R
PLATTSBURGH    CLOUDY    71  58  63 VRB3      30.17F
$$

NYZ001>004-010>016-019>021-085-252100-
WEST


CITY           SKY/WX    TMP DP  RH WIND       PRES   REMARKS
NIAGARA FALLS  PTSUNNY   71  54  54 E10       30.21S
BUFFALO        PTSUNNY   68  55  63 N8        30.21S
DUNKIRK        CLOUDY    69  57  65 NE9       30.22S
JAMESTOWN      CLOUDY    63  52  67 NE6       30.23S
WELLSVILLE     CLOUDY    63  54  72 NW6       30.24S
ROCHESTER      CLOUDY    66  56  70 N7        30.21R
PENN YAN       CLOUDY    63  56  78 NW7       30.21S
$$

             KEY
       WCI = WIND CHILL INDEX
       VSB = VISIBILITY
       HX  = HEAT INDEX
$$




USA.gov is the U.S. government's official web portal to all federal, state and local government web resources and services.